Weather History for Concord, NH

Change the Weather History Date:

Thursday, February 13, 2014

  Actual Average Record
Temperature  
Mean Temperature 18 °F 24 °F  
Max Temperature 33 °F 34 °F 60 °F (1951)
Min Temperature 2 °F 13 °F -34 °F (1875)
Degree Days  
Heating Degree Days 47 41  
Month to date heating degree days 610 551  
Since 1 July heating degree days 4807 4673  
Cooling Degree Days 0 0  
Month to date cooling degree days 0 0  
Year to date cooling degree days 0 0  
Moisture  
Dew Point 17 °F    
Average Humidity 78    
Maximum Humidity 92    
Minimum Humidity 63    
Precipitation  
Precipitation 0.72 in 0.10 in 2.91 in (2008)
Month to date precipitation 1.58 1.20  
Year to date precipitation 4.79 3.90  
Snow  
Snow 6.70 in 0.50 in 17.00 in (1893)
Month to date snowfall 16.0 6.1  
Since 1 July snowfall 50.5 41.3  
Snow Depth 14.00 in    
Sea Level Pressure  
Sea Level Pressure 29.90 in    
Wind  
Wind Speed 8 mph (North)    
Max Wind Speed 21 mph    
Max Gust Speed 28 mph    
Visibility 3 miles    
Events Fog , Rain , Snow    
T = Trace of Precipitation, MM = Missing Value Source: NWS Daily Summary

Daily Weather History Graph

Daily Weather History Graph

Search for Another Location

Airport:

Trip Planner

Search our weather history database for the weather conditions in past years. The results will help you decide how hot, cold, wet, or windy it might be!

Date:

Astronomy

Feb. 13, 2014 Rise Set
Actual Time 6:46 AM EST 5:14 PM EST
Civil Twilight 6:17 AM EST 5:43 PM EST
Nautical Twilight 5:43 AM EST 6:17 PM EST
Astronomical Twilight 5:10 AM EST 6:50 PM EST
Moon 4:19 PM EST (2/13) 5:38 AM EST (2/13)
Length of Visible Light 11h 26m
Length of Day
10h 27m
Waxing Gibbous, 98% of the Moon is Illuminated
Feb 13
Waxing Gibbous
Feb 14
Full
Feb 22
Last Quarter
Mar 1
New
Mar 8
First Quarter

Hourly Weather History & Observations

Time (EST) Temp. Windchill Dew Point Humidity Pressure Visibility Wind Dir Wind Speed Gust Speed Precip Events Conditions
12:51 AM 3.0 °F - -2.9 °F 76% 30.40 in 10.0 mi Calm Calm - N/A   Clear
1:27 AM 5.0 °F - -2.0 °F 73% 30.38 in 10.0 mi Calm Calm - N/A   Mostly Cloudy
1:51 AM 7.0 °F 0.1 °F -0.0 °F 73% 30.39 in 10.0 mi East 3.5 mph - N/A   Overcast
2:51 AM 10.0 °F 3.6 °F -0.0 °F 64% 30.37 in 10.0 mi WNW 3.5 mph - N/A   Overcast
3:51 AM 10.9 °F - 1.9 °F 67% 30.35 in 10.0 mi Calm Calm - N/A   Overcast
4:51 AM 10.9 °F - 3.0 °F 70% 30.34 in 10.0 mi Calm Calm - N/A   Overcast
5:51 AM 12.0 °F 2.7 °F 3.9 °F 70% 30.32 in 10.0 mi WNW 5.8 mph - N/A   Overcast
6:51 AM 12.0 °F - 5.0 °F 73% 30.30 in 2.0 mi Calm Calm - 0.00 in Snow Light Snow
7:01 AM 12.0 °F 5.9 °F 6.1 °F 77% 30.27 in 1.2 mi WNW 3.5 mph - 0.00 in Snow Light Snow
7:14 AM 12.0 °F - 7.0 °F 80% 30.27 in 0.8 mi Calm Calm - 0.01 in Snow Light Snow
7:25 AM 12.0 °F 5.9 °F 8.1 °F 84% 30.26 in 1.0 mi NNW 3.5 mph - 0.01 in Snow Light Snow
7:51 AM 12.9 °F 6.9 °F 9.0 °F 84% 30.27 in 1.2 mi NNW 3.5 mph - 0.01 in Snow Light Snow
8:49 AM 14.0 °F 6.5 °F 10.4 °F 86% 30.22 in 0.8 mi NW 4.6 mph - 0.02 in Snow Light Snow
8:51 AM 14.0 °F 8.2 °F 10.0 °F 84% 30.24 in 0.8 mi NW 3.5 mph - 0.02 in Snow Light Snow
8:58 AM 14.0 °F 6.5 °F 10.0 °F 84% 30.21 in 1.0 mi NW 4.6 mph - 0.00 in Snow Light Snow
9:10 AM 14.0 °F 6.5 °F 10.9 °F 88% 30.21 in 0.8 mi NW 4.6 mph - 0.00 in Snow Light Snow
9:51 AM 15.1 °F 5.2 °F 12.0 °F 88% 30.20 in 0.8 mi NW 6.9 mph - 0.02 in Snow Light Snow
10:44 AM 17.1 °F 7.6 °F 14.0 °F 88% 30.14 in 1.0 mi NW 6.9 mph - 0.01 in Snow Light Snow
10:51 AM 17.1 °F 7.6 °F 14.0 °F 88% 30.16 in 1.0 mi NW 6.9 mph - 0.01 in Snow Light Snow
11:00 AM 18.0 °F 11.1 °F 15.1 °F 88% 30.12 in 0.8 mi NW 4.6 mph - 0.01 in Snow Light Snow
11:51 AM 23.0 °F 13.1 °F 19.9 °F 88% 30.08 in 0.5 mi NNE 9.2 mph - 0.04 in Fog , Snow Light Snow
12:51 PM 24.1 °F 13.7 °F 21.0 °F 88% 30.01 in 0.8 mi NNE 10.4 mph - 0.03 in Snow Light Snow
1:09 PM 24.1 °F 13.7 °F 21.9 °F 91% 29.95 in 0.2 mi NNE 10.4 mph - 0.01 in Fog , Snow Snow
1:25 PM 25.0 °F 14.2 °F 21.9 °F 88% 29.93 in 0.5 mi NNE 11.5 mph - 0.03 in Fog , Snow Snow
1:51 PM 25.0 °F 15.5 °F 23.0 °F 92% 29.92 in 0.2 mi NNE 9.2 mph - 0.06 in Fog , Snow Snow
2:51 PM 26.1 °F 15.6 °F 24.1 °F 92% 29.84 in 0.2 mi North 11.5 mph - 0.10 in Fog , Snow Snow
3:51 PM 26.1 °F 15.0 °F 23.0 °F 88% 29.74 in 0.2 mi North 12.7 mph 20.7 mph 0.11 in Fog , Snow Snow
3:54 PM 26.1 °F 14.5 °F 23.0 °F 88% 29.72 in 0.5 mi North 13.8 mph - 0.00 in Fog , Snow Snow
4:18 PM 26.1 °F 15.6 °F 24.1 °F 92% 29.71 in 0.2 mi NNE 11.5 mph 20.7 mph 0.03 in Fog , Snow Snow
4:31 PM 26.1 °F 15.0 °F 24.1 °F 92% 29.70 in 0.2 mi NE 12.7 mph 21.9 mph 0.06 in Fog , Snow Snow
4:51 PM 26.1 °F 15.0 °F 24.1 °F 92% 29.70 in 0.2 mi NNE 12.7 mph - 0.10 in Fog , Snow Heavy Snow
5:29 PM 26.1 °F 12.7 °F 24.1 °F 92% 29.62 in 0.5 mi NNE 18.4 mph 24.2 mph 0.09 in Fog , Snow Snow
5:46 PM 26.6 °F 15.2 °F 24.8 °F 93% 29.58 in 0.8 mi NNE 13.8 mph 27.6 mph 0.10 in Snow Light Snow
5:51 PM 26.1 °F 14.0 °F 25.0 °F 96% 29.60 in 0.8 mi NNE 15.0 mph 27.6 mph 0.11 in Snow Light Snow
6:05 PM 27.0 °F 15.2 °F 25.0 °F 92% 29.58 in 1.0 mi NNE 15.0 mph 23.0 mph 0.02 in Snow Light Snow
6:42 PM 28.0 °F 17.5 °F 26.1 °F 92% 29.53 in 1.5 mi North 12.7 mph 21.9 mph 0.07 in Snow Light Snow
6:51 PM 28.0 °F 17.0 °F 26.1 °F 92% 29.54 in 1.5 mi North 13.8 mph 24.2 mph 0.08 in Snow Light Snow
7:05 PM 28.0 °F 18.6 °F 26.1 °F 92% 29.50 in 2.0 mi North 10.4 mph 18.4 mph 0.02 in Snow Light Snow
7:51 PM 28.9 °F 17.7 °F 27.0 °F 92% 29.47 in 2.5 mi North 15.0 mph 20.7 mph 0.04 in   Overcast
8:00 PM 28.9 °F 19.2 °F 27.0 °F 92% 29.43 in 3.0 mi North 11.5 mph 17.3 mph 0.00 in   Overcast
8:14 PM 30.0 °F 21.7 °F 27.0 °F 88% 29.40 in 3.0 mi North 9.2 mph - 0.01 in Rain Light Freezing Rain
8:29 PM 30.0 °F 21.7 °F 27.0 °F 88% 29.38 in 4.0 mi North 9.2 mph - 0.01 in   Overcast
8:51 PM 30.0 °F 21.1 °F 28.0 °F 92% 29.38 in 4.0 mi North 10.4 mph - 0.01 in   Overcast
9:51 PM 30.9 °F 22.2 °F 28.9 °F 92% 29.31 in 5.0 mi North 10.4 mph - N/A   Overcast
10:37 PM 32.0 °F 22.1 °F 28.9 °F 88% 29.23 in 9.0 mi NNE 13.8 mph 18.4 mph N/A   Overcast
10:51 PM 32.0 °F 24.8 °F 28.9 °F 88% 29.23 in 10.0 mi NNE 8.1 mph 18.4 mph N/A   Overcast
11:51 PM 33.1 °F 24.4 °F 28.9 °F 85% 29.13 in 10.0 mi NNE 11.5 mph 25.3 mph N/A   Overcast